Location: Artiguedieu
(43.5000°N, 0.5454°E)
Time: 07:59:40
(UTC+00:00)

Atlas Centaur 2 - Pass Details

Date: 06 December 2020
Orbit: 459 x 1309 km, 30.4° (Epoch: 19 January)

Event Time Altitude Azimuth Distance (km) Brightness Sun altitude
Exits shadow 04:01:05 24° 174° (S) 2,135 4.2 -34.6°
Drops below altitude 10° 04:05:02 10° 141° (SE) 2,832 5.3 -33.9°
Sets 04:07:57 0° 129° (SE) 3,642 6.2 -33.3°
